Tracking 30743 objects as of 21-Jun-2025
HD Live streaming from Space Station
objects crossing your sky now

AMC-7 (GE-7)

Track AMC-7 (GE-7) now!
AMC-7 (GE-7) is classified as:


NORAD ID: 26495
Int'l Code: 2000-054B
Perigee: 36,087.9 km
Apogee: 36,145.5 km
Inclination: 6.0 °
Period: 1,452.6 minutes
Semi major axis: 42487 km
RCS: 22.9975 m2 (large)
Launch date: September 14, 2000
Source: SOCIETE EUROPEENNE DES SATELLITES (SES)
Launch site: FRENCH GUIANA (FRGUI)

Cable programming; 24 C-band; CONUS, Alaska, Hawaii, Caribbean
Your satellite tracking list
Your tracking list is empty




NASA's NSSDC Master Catalog

Two Line Element Set (TLE):
1 26495U 00054B   25171.87178301  .00000097  00000-0  00000-0 0  9992
2 26495   5.9940  74.6162 0006780  93.2016 117.1249  0.99130721 90380
Source of the keplerian elements: AFSPC